F4DOU-5 Weather Reports


time (UTC)temp
C
wind
direction
speed
KPH
gust
KPH
rain 1hr
cm
rain 24hr
cm
rain mn
cm
humidity
%
barometer
mb
20260507110005 20 148 4.8 14.5 0.00 0.03 0.00 58 1013.4
20260507105007 20 113 3.2 9.7 0.00 0.03 0.00 59 1013.6
20260507104005 20 266 3.2 12.9 0.00 0.03 0.00 60 1013.7
20260507103005 19 24 4.8 12.9 0.00 0.03 0.00 62 1013.9
20260507101007 19 47 3.2 11.3 0.00 0.03 0.00 63 1013.9
20260507100005 18 52 4.8 12.9 0.00 0.03 0.00 64 1013.8
20260507095005 18 313 3.2 12.9 0.00 0.03 0.00 67 1013.9
20260507094005 18 73 3.2 11.3 0.00 0.03 0.00 68 1013.9
20260507093008 18 65 8.0 12.9 0.00 0.03 0.00 68 1014.0
20260507092005 17 148 3.2 8.0 0.00 0.03 0.00 70 1014.0
20260507091005 17 347 4.8 16.1 0.00 0.03 0.00 70 1014.0
20260507090005 17 79 4.8 14.5 0.00 0.03 0.00 71 1013.9
20260507085005 17 59 8.0 14.5 0.00 0.03 0.00 71 1013.9
20260507084004 16 29 4.8 11.3 0.00 0.03 0.00 72 1013.9
20260507083005 16 359 8.0 16.1 0.00 0.03 0.00 74 1013.8
20260507082005 16 30 4.8 16.1 0.00 0.03 0.00 75 1013.8
20260507081005 15 38 9.7 19.3 0.00 0.03 0.00 76 1013.8
20260507080005 15 354 8.0 19.3 0.00 0.03 0.00 77 1013.8
20260507074004 15 13 9.7 16.1 0.00 0.03 0.00 77 1013.8
20260507073005 15 356 9.7 16.1 0.00 0.03 0.00 78 1013.8
20260507070009 13 23 9.7 14.5 0.00 0.03 0.00 83 1013.9
20260507065005 13 35 6.4 14.5 0.00 0.03 0.00 84 1013.8
20260507063005 12 24 6.4 12.9 0.00 0.03 0.00 87 1013.9
20260507062004 12 23 4.8 11.3 0.00 0.03 0.00 91 1013.8
20260507061004 11 134 0.0 1.6 0.00 0.03 0.00 92 1013.7
20260507055005 10 155 1.6 4.8 0.00 0.03 0.00 93 1013.7
20260507054004 10 131 3.2 4.8 0.00 0.03 0.00 93 1013.6
20260507052006 8 329 1.6 4.8 0.00 0.03 0.00 94 1013.4
20260507051004 8 151 0.0 3.2 0.00 0.03 0.00 94 1013.4
20260507050005 8 151 1.6 3.2 0.00 0.03 0.00 93 1013.2
20260507045004 8 151 1.6 4.8 0.00 0.03 0.00 92 1013.0
20260507044007 8 311 0.0 0.0 0.00 0.03 0.00 93 1012.9
20260507043004 8 314 0.0 0.0 0.00 0.03 0.00 92 1012.9
20260507042004 8 322 0.0 0.0 0.00 0.03 0.00 92 1012.8
20260507041005 8 294 0.0 3.2 0.00 0.03 0.00 92 1012.9
20260507035006 8 307 1.6 4.8 0.00 0.03 0.00 92 1012.8
20260507034006 8 306 1.6 4.8 0.00 0.03 0.00 92 1012.8
20260507033006 8 340 1.6 3.2 0.00 0.03 0.00 92 1012.8
20260507032006 8 355 0.0 3.2 0.00 0.03 0.00 91 1012.8
20260507031006 8 43 0.0 0.0 0.00 0.03 0.00 91 1012.8
20260507030006 8 43 0.0 0.0 0.00 0.03 0.00 91 1012.8
20260507024006 9 43 0.0 1.6 0.00 0.03 0.00 90 1012.8
20260507023006 9 43 1.6 3.2 0.00 0.03 0.00 90 1012.6
20260507022006 9 284 1.6 4.8 0.00 0.03 0.00 90 1012.6
20260507021006 9 318 3.2 4.8 0.00 0.03 0.00 90 1012.7
20260507020006 9 348 1.6 3.2 0.00 0.03 0.00 90 1012.7
20260507015004 10 318 1.6 4.8 0.00 0.03 0.00 90 1012.7
20260507013006 10 294 1.6 3.2 0.00 0.03 0.00 90 1012.7
20260507012006 10 235 0.0 1.6 0.00 0.03 0.00 90 1012.8
20260507010006 10 231 0.0 3.2 0.00 0.03 0.00 89 1012.8
20260507005006 10 275 0.0 1.6 0.00 0.03 0.00 89 1012.7
20260507004006 10 296 0.0 1.6 0.00 0.05 0.00 88 1012.7
20260507003007 10 276 0.0 4.8 0.00 0.05 0.00 88 1012.8
20260507002006 10 76 0.0 8.0 0.00 0.05 0.00 87 1012.8
20260507001006 11 140 0.0 1.6 0.00 0.05 0.00 87 1012.9
20260507000006 11 111 0.0 1.6 0.00 0.05 0.00 86 1012.8
20260506235004 11 54 0.0 4.8 0.00 0.05 0.00 85 1012.7
20260506234006 11 46 0.0 4.8 0.00 0.05 0.00 84 1012.6
20260506233006 11 293 0.0 0.0 0.00 0.05 0.00 83 1012.6
20260506232006 11 293 0.0 3.2 0.00 0.08 0.00 82 1012.5
20260506231005 12 324 0.0 3.2 0.00 0.13 0.00 81 1012.7
20260506230006 12 234 0.0 0.0 0.00 0.15 0.00 81 1012.7
20260506225006 12 237 0.0 0.0 0.00 0.15 0.00 79 1012.7
20260506224006 13 237 0.0 0.0 0.00 0.25 0.00 77 1012.7
20260506223005 13 237 0.0 4.8 0.00 0.33 0.00 76 1012.7
20260506222006 13 203 1.6 4.8 0.00 0.43 0.00 75 1012.7
20260506221006 13 230 0.0 1.6 0.00 0.48 0.00 75 1012.8
20260506214004 14 249 3.2 14.5 0.00 0.51 0.48 73 1012.6
20260506213004 14 245 1.6 3.2 0.00 0.53 0.48 73 1012.5
20260506212004 15 141 0.0 4.8 0.00 0.53 0.48 71 1012.5
20260506211004 15 126 3.2 9.7 0.00 0.53 0.48 70 1012.3
20260506210006 15 166 1.6 8.0 0.00 0.53 0.48 69 1012.3
20260506205006 15 180 4.8 8.0 0.00 0.53 0.48 69 1011.9
20260506204006 15 246 0.0 4.8 0.00 0.53 0.48 68 1011.9
20260506203006 15 223 1.6 8.0 0.00 0.53 0.48 68 1011.8
20260506202007 15 233 3.2 4.8 0.00 0.53 0.48 68 1011.6
20260506200006 16 225 3.2 8.0 0.00 0.53 0.48 69 1011.4
20260506195006 16 232 1.6 4.8 0.00 0.53 0.48 69 1011.4
20260506194008 16 200 1.6 4.8 0.00 0.53 0.48 70 1011.2
20260506193006 16 207 0.0 4.8 0.00 0.53 0.48 72 1011.1
20260506192006 16 217 1.6 4.8 0.00 0.53 0.48 73 1010.9
20260506191006 16 210 3.2 11.3 0.00 0.53 0.48 73 1010.6
20260506184006 17 211 4.8 14.5 0.00 0.53 0.48 70 1010.1
20260506183006 17 196 4.8 12.9 0.00 0.53 0.48 69 1010.1
20260506182005 17 185 8.0 12.9 0.00 0.53 0.48 66 1010.0
20260506181006 17 181 4.8 12.9 0.00 0.53 0.48 66 1009.9
20260506180006 17 190 8.0 12.9 0.00 0.53 0.48 65 1009.8
20260506175006 18 185 4.8 12.9 0.00 0.53 0.48 65 1009.8
20260506174005 18 181 6.4 12.9 0.00 0.53 0.48 63 1009.6
20260506172006 19 183 8.0 14.5 0.00 0.53 0.48 62 1009.6
20260506170006 19 207 8.0 19.3 0.00 0.53 0.48 60 1009.5
20260506165006 20 188 8.0 19.3 0.00 0.53 0.48 59 1009.5
20260506164006 20 191 4.8 12.9 0.00 0.53 0.48 59 1009.5
20260506161006 20 192 3.2 12.9 0.00 0.53 0.48 57 1009.5
20260506160006 20 205 3.2 14.5 0.00 0.53 0.48 56 1009.5
20260506155005 20 176 8.0 16.1 0.00 0.53 0.48 56 1009.5
20260506154006 20 183 11.3 19.3 0.00 0.53 0.48 57 1009.6
20260506153006 20 190 8.0 19.3 0.00 0.53 0.48 57 1009.6
20260506152006 20 164 9.7 19.3 0.00 0.53 0.48 57 1009.5
20260506150006 18 131 1.6 8.0 0.00 0.53 0.48 63 1009.7
20260506145006 18 84 3.2 9.7 0.00 0.53 0.48 63 1009.7
20260506143006 18 37 9.7 19.3 0.00 0.53 0.48 62 1009.9
20260506142006 19 14 8.0 14.5 0.00 0.53 0.48 63 1009.9
20260506141006 19 68 8.0 19.3 0.00 0.53 0.48 63 1010.0
20260506140006 19 107 6.4 19.3 0.00 0.53 0.48 63 1010.1
20260506135006 20 137 4.8 12.9 0.00 0.53 0.48 59 1010.1
20260506134007 20 187 4.8 11.3 0.00 0.53 0.48 59 1010.1
20260506132006 19 142 6.4 16.1 0.00 0.53 0.48 63 1010.2
20260506131006 19 103 1.6 9.7 0.03 0.53 0.48 63 1010.2
20260506130007 18 17 1.6 9.7 0.03 0.53 0.48 65 1010.2
20260506125006 17 262 3.2 9.7 0.03 0.53 0.48 65 1010.2
20260506124006 16 61 3.2 9.7 0.03 0.53 0.48 78 1010.3
20260506123006 16 24 4.8 14.5 0.03 0.53 0.48 82 1010.4
20260506122008 16 5 8.0 19.3 0.03 0.53 0.48 79 1010.5
20260506121006 17 337 8.0 19.3 0.00 0.51 0.46 72 1010.4
20260506120006 18 323 14.5 24.1 0.00 0.51 0.46 68 1010.4
20260506115006 20 244 3.2 9.7 0.00 0.51 0.46 57 1010.2
20260506114005 18 242 8.0 14.5 0.00 0.51 0.46 61 1010.2
20260506113006 18 139 4.8 11.3 0.00 0.51 0.46 62 1010.2
20260506112006 19 117 4.8 12.9 0.00 0.51 0.46 60 1010.3